Miscellaneous Local Product
Issued by NWS Hastings, NE

Home | Current Version | Previous Version | Text Only | Print | Product List | Glossary On
Versions: 1 2 3 4 5 6 7 8 9 10 11 12 13 14 15 16 17 18 19 20 21 22 23 24 25 26 27 28 29 30 31 32 33 34 35 36 37 38 39 40 41 42 43 44 45 46 47 48 49 50
000
AXUS43 KGID 020802
MISGRI

GID CWA HOURLY WEATHER ROUNDUP
NATIONAL WEATHER SERVICE HASTINGS NE
300 AM CDT THU APR 02 2015

NOTE: "FAIR" INDICATES FEW OR NO CLOUDS BELOW 12,000 FEET WITH NO
SIGNIFICANT WEATHER AND/OR OBSTRUCTIONS TO VISIBILITY.

...SOUTH CENTRAL NEBRASKA...

CITY           SKY/WX    TMP DP  RH WIND       PRES   REMARKS
GRAND ISLAND   CLOUDY    50  35  56 N13       29.79R
HASTINGS       CLOUDY    51  36  56 NE10      29.78F
KEARNEY        CLOUDY    54  25  32 N17       29.84R
ORD            CLOUDY    52  22  30 NE10      29.79F
YORK           LGT RAIN  52  45  76 N7        29.78R
AURORA         CLOUDY    51  38  61 N12       29.78R
LEXINGTON      LGT RAIN  51  33  49 NE13G22   29.86S
HOLDREGE       CLOUDY    53  25  33 N14G20    29.85R
HEBRON         CLOUDY    54  49  82 N12G20    29.78R

...NEBRASKA PANHANDLE...

CITY           SKY/WX    TMP DP  RH WIND       PRES   REMARKS
CHADRON        CLEAR     29  19  66 SW6       29.92R WCI  23
ALLIANCE       CLEAR     25  20  81 W8        29.92R WCI  16
SCOTTSBLUFF    PTCLDY    31  23  72 NW9       29.94R WCI  23
SIDNEY         PTCLDY    29  21  72 NW10      29.93R WCI  20

...WESTERN AND NORTH CENTRAL NEBRASKA...

CITY           SKY/WX    TMP DP  RH WIND       PRES   REMARKS
VALENTINE      CLOUDY    37  19  48 W8        29.87R WCI  31
AINSWORTH      CLOUDY    46  20  35 NW5       29.86R
ONEILL         CLOUDY    50  26  40 N3        29.83F
BROKEN BOW     CLOUDY    50  23  34 N3        29.85R
IMPERIAL       PTCLDY    40  32  73 N9        29.88R WCI  34
NORTH PLATTE   MOCLDY    39  23  52 N3        29.88R
MCCOOK         MOCLDY    46  37  71 NE10      29.84S

...EASTERN NEBRASKA...

CITY           SKY/WX    TMP DP  RH WIND       PRES   REMARKS
NORFOLK        CLOUDY    54  32  43 N14       29.77F
SO SIOUX CITY  CLOUDY    53  40  61 N12       29.77S
TEKAMAH        LGT RAIN  54  49  83 N8        29.74F
COLUMBUS       CLOUDY    52  36  54 N10       29.78R
ALBION         CLOUDY    55  24  30 N14       29.77F
OMAHA EPPLEY   LGT RAIN  55  53  93 N10       29.72F
MILLARD        LGT RAIN  56  53  91 N6        29.72F
LINCOLN        CLOUDY    54  46  74 N16       29.75R
NEBRASKA CITY  LGT RAIN  55  55 100 NE28G33   29.65F
FALLS CITY     RAIN      56  54  93 NE10      29.69R

...NORTHERN KANSAS...

CITY           SKY/WX    TMP DP  RH WIND       PRES   REMARKS
GOODLAND       PTCLDY    42  39  89 N7        29.87R
HILL CITY      CLOUDY    56  33  42 NE23      29.80F
NORTON         PTSUNNY   54  21  28 N16G25    29.80F
PHILLIPSBURG   CLEAR     57  36  44 NW15G21   29.81S
BELOIT         PTCLDY    41  32  70 N24G31    29.72F
HAYS           MOCLDY    55  34  44 N22       29.77R
RUSSELL        PTCLDY    57  40  52 NE21G31   29.75R
CONCORDIA      CLOUDY    56  49  77 NE18G28   29.73R
SALINA         CLOUDY    58  53  84 N17       29.74R
TOPEKA         CLOUDY    68  59  73 NW10      29.66R



USA.gov is the U.S. government's official web portal to all federal, state and local government web resources and services.